WZZ95PF EPGD-EDDH

Flight info

Callsign WZZ95PF
Flight time 0h 58m
Altitude 36000
Route DEXIR T671 AGODU L733 BODLA Z717 PODUS L619 BUMIL M748 RARUP RARUP3P
Aircraft A21N/M-SDE2E3FGHIRWXY/LB1

Departure

Time 2026-04-24 10:08
Airport Gdańsk Lech Wałęsa Airport (EPGD)

Arrival

Time 2026-04-24 11:06
Airport Hamburg Helmut Schmidt Airport (EDDH)
Time Latitude Longitude Altitude Speed Heading
2026-04-24 09:44 54.38142 18.46500 465 ft 0 kts 23°
2026-04-24 09:58 54.38138 18.46498 465 ft 3 kts 24°
2026-04-24 09:58 54.38118 18.46474 462 ft 4 kts 57°
2026-04-24 09:58 54.38112 18.46435 465 ft 4 kts 105°
2026-04-24 09:58 54.38115 18.46421 464 ft 0 kts 113°
2026-04-24 10:03 54.38108 18.46447 463 ft 4 kts 113°
2026-04-24 10:03 54.38093 18.46508 463 ft 7 kts 113°
2026-04-24 10:03 54.38070 18.46596 465 ft 9 kts 121°
2026-04-24 10:04 54.38006 18.46598 465 ft 12 kts 204°
2026-04-24 10:04 54.37931 18.46642 465 ft 14 kts 118°
2026-04-24 10:04 54.37891 18.46801 465 ft 15 kts 112°
2026-04-24 10:04 54.37847 18.46982 465 ft 17 kts 112°
2026-04-24 10:05 54.37798 18.47182 465 ft 19 kts 113°
2026-04-24 10:05 54.37744 18.47399 463 ft 21 kts 113°
2026-04-24 10:05 54.37684 18.47639 469 ft 23 kts 113°
2026-04-24 10:05 54.37620 18.47897 475 ft 25 kts 113°
2026-04-24 10:06 54.37549 18.48181 478 ft 27 kts 113°
2026-04-24 10:06 54.37390 18.48823 495 ft 27 kts 113°
2026-04-24 10:06 54.37332 18.49055 500 ft 21 kts 113°
2026-04-24 10:07 54.37291 18.49221 501 ft 12 kts 112°
2026-04-24 10:07 54.37219 18.49269 502 ft 15 kts 212°
2026-04-24 10:07 54.37161 18.49170 501 ft 9 kts 230°
2026-04-24 10:07 54.37148 18.49071 501 ft 6 kts 297°
2026-04-24 10:08 54.37168 18.48997 500 ft 14 kts 294°
2026-04-24 10:08 54.37314 18.48411 494 ft 94 kts 292°
2026-04-24 10:08 54.37657 18.46998 494 ft 152 kts 292°
2026-04-24 10:08 54.38049 18.45412 1228 ft 145 kts 291°
2026-04-24 10:09 54.38405 18.43746 1919 ft 151 kts 290°
2026-04-24 10:09 54.38733 18.42089 2860 ft 145 kts 291°
2026-04-24 10:09 54.39167 18.40515 3426 ft 148 kts 300°
2026-04-24 10:09 54.39626 18.38885 3960 ft 161 kts 296°
2026-04-24 10:10 54.40092 18.37029 4447 ft 178 kts 295°
2026-04-24 10:10 54.40606 18.34945 4912 ft 205 kts 295°
2026-04-24 10:10 54.41190 18.32575 5520 ft 222 kts 296°
2026-04-24 10:10 54.41801 18.30099 6443 ft 227 kts 296°
2026-04-24 10:11 54.42420 18.27586 7352 ft 231 kts 296°
2026-04-24 10:11 54.43008 18.24990 8203 ft 236 kts 288°
2026-04-24 10:11 54.43107 18.22147 9034 ft 246 kts 262°
2026-04-24 10:11 54.42389 18.19412 9692 ft 265 kts 233°
2026-04-24 10:12 54.40884 18.17451 10091 ft 289 kts 207°
2026-04-24 10:12 54.38944 18.16122 10435 ft 312 kts 202°
2026-04-24 10:12 54.36861 18.14648 10719 ft 335 kts 210°
2026-04-24 10:12 54.35025 18.12088 11091 ft 347 kts 233°
2026-04-24 10:13 54.33845 18.08484 11782 ft 349 kts 251°
2026-04-24 10:13 54.33048 18.04547 12632 ft 351 kts 255°
2026-04-24 10:13 54.32281 18.00545 13458 ft 356 kts 255°
2026-04-24 10:13 54.31481 17.96495 14200 ft 361 kts 254°
2026-04-24 10:14 54.30666 17.92473 14941 ft 364 kts 254°
2026-04-24 10:14 54.29823 17.88371 15700 ft 367 kts 254°
2026-04-24 10:14 54.28967 17.84232 16451 ft 370 kts 255°
2026-04-24 10:14 54.28215 17.80010 17180 ft 372 kts 258°
2026-04-24 10:15 54.27512 17.75718 17913 ft 376 kts 259°
2026-04-24 10:15 54.26810 17.71397 18578 ft 380 kts 259°
2026-04-24 10:15 54.26089 17.67028 19194 ft 383 kts 259°
2026-04-24 10:15 54.25360 17.62628 19802 ft 386 kts 259°
2026-04-24 10:16 54.24622 17.58193 20417 ft 389 kts 259°
2026-04-24 10:16 54.23890 17.53787 21005 ft 393 kts 259°
2026-04-24 10:16 54.23133 17.49284 21592 ft 396 kts 259°
2026-04-24 10:16 54.22304 17.44760 22179 ft 403 kts 253°
2026-04-24 10:17 54.21113 17.40382 22756 ft 409 kts 249°
2026-04-24 10:17 54.19830 17.36016 23315 ft 413 kts 248°
2026-04-24 10:17 54.18527 17.31628 23818 ft 416 kts 248°
2026-04-24 10:17 54.17221 17.27205 24306 ft 418 kts 249°
2026-04-24 10:18 54.15914 17.22756 24791 ft 420 kts 249°
2026-04-24 10:18 54.14619 17.18359 25274 ft 422 kts 249°
2026-04-24 10:18 54.13292 17.13864 25721 ft 425 kts 248°
2026-04-24 10:18 54.11956 17.09359 26166 ft 427 kts 249°
2026-04-24 10:19 54.10614 17.04824 26637 ft 429 kts 249°
2026-04-24 10:19 54.09452 17.00161 27067 ft 426 kts 257°
2026-04-24 10:19 54.08609 16.95319 27498 ft 427 kts 259°
2026-04-24 10:19 54.07810 16.90451 27932 ft 429 kts 259°
2026-04-24 10:20 54.07001 16.85542 28353 ft 431 kts 259°
2026-04-24 10:20 54.06197 16.80683 28748 ft 434 kts 259°
2026-04-24 10:20 54.05371 16.75730 29130 ft 436 kts 259°
2026-04-24 10:20 54.04533 16.70754 29525 ft 439 kts 259°
2026-04-24 10:21 54.03691 16.65760 29909 ft 441 kts 259°
2026-04-24 10:21 54.02841 16.60726 30245 ft 443 kts 259°
2026-04-24 10:21 54.01991 16.55678 30585 ft 444 kts 259°
2026-04-24 10:21 54.01134 16.50639 30982 ft 444 kts 259°
2026-04-24 10:22 54.00275 16.45608 31387 ft 443 kts 259°
2026-04-24 10:22 53.99430 16.40664 31763 ft 442 kts 259°
2026-04-24 10:22 53.98569 16.35645 32098 ft 442 kts 259°
2026-04-24 10:22 53.97713 16.30642 32465 ft 441 kts 259°
2026-04-24 10:23 53.96849 16.25641 32814 ft 441 kts 259°
2026-04-24 10:23 53.95982 16.20659 33144 ft 440 kts 259°
2026-04-24 10:23 53.95112 16.15669 33457 ft 441 kts 259°
2026-04-24 10:23 53.93998 16.10783 33773 ft 448 kts 250°
2026-04-24 10:24 53.92403 16.06202 34082 ft 453 kts 243°
2026-04-24 10:24 53.90685 16.01804 34339 ft 454 kts 242°
2026-04-24 10:24 53.88927 15.97360 34572 ft 454 kts 242°
2026-04-24 10:24 53.87170 15.92907 34828 ft 453 kts 242°
2026-04-24 10:25 53.85426 15.88464 35068 ft 453 kts 242°
2026-04-24 10:25 53.83686 15.84021 35308 ft 453 kts 243°
2026-04-24 10:25 53.81952 15.79575 35529 ft 453 kts 242°
2026-04-24 10:25 53.80213 15.75136 35759 ft 452 kts 242°
2026-04-24 10:26 53.78470 15.70705 35976 ft 452 kts 242°
2026-04-24 10:26 53.76752 15.66335 36119 ft 453 kts 242°
2026-04-24 10:26 53.75011 15.61905 36124 ft 453 kts 242°
2026-04-24 10:27 53.71508 15.53050 36101 ft 453 kts 242°
2026-04-24 10:27 53.67995 15.44206 36099 ft 454 kts 242°
2026-04-24 10:28 53.64533 15.35314 36104 ft 453 kts 243°
2026-04-24 10:28 53.61134 15.26446 36104 ft 454 kts 242°
2026-04-24 10:29 53.57694 15.17526 36105 ft 454 kts 242°
2026-04-24 10:29 53.54235 15.08624 36104 ft 455 kts 242°
2026-04-24 10:30 53.51353 15.01233 36110 ft 455 kts 242°
2026-04-24 10:30 53.47867 14.92343 36109 ft 456 kts 242°
2026-04-24 10:31 53.43826 14.82008 36111 ft 456 kts 242°
2026-04-24 10:31 53.40918 14.74623 36105 ft 456 kts 241°
2026-04-24 10:32 53.37412 14.65760 36111 ft 457 kts 241°
2026-04-24 10:32 53.33892 14.56894 36111 ft 457 kts 241°
2026-04-24 10:33 53.30353 14.48050 36113 ft 458 kts 241°
2026-04-24 10:33 53.27164 14.39008 36105 ft 450 kts 253°
2026-04-24 10:34 53.25201 14.29123 36118 ft 448 kts 257°
2026-04-24 10:34 53.23321 14.19215 36120 ft 448 kts 257°
2026-04-24 10:35 53.21408 14.09301 36128 ft 449 kts 257°
2026-04-24 10:35 53.19468 13.99399 36121 ft 450 kts 257°
2026-04-24 10:36 53.17526 13.89476 36125 ft 450 kts 256°
2026-04-24 10:36 53.15570 13.79632 36125 ft 451 kts 256°
2026-04-24 10:37 53.13612 13.69696 36136 ft 451 kts 256°
2026-04-24 10:37 53.11638 13.59783 36131 ft 452 kts 256°
2026-04-24 10:38 53.09651 13.49924 36130 ft 452 kts 256°
2026-04-24 10:38 53.07644 13.40006 36132 ft 453 kts 255°
2026-04-24 10:39 53.05624 13.30069 36129 ft 453 kts 255°
2026-04-24 10:39 53.03594 13.20144 36135 ft 454 kts 255°
2026-04-24 10:40 53.01566 13.10280 36136 ft 454 kts 255°
2026-04-24 10:40 52.99511 13.00352 36132 ft 455 kts 255°
2026-04-24 10:41 52.97447 12.90413 36142 ft 455 kts 254°
2026-04-24 10:41 52.96028 12.80288 36140 ft 448 kts 272°
2026-04-24 10:42 52.96309 12.70027 36137 ft 445 kts 277°
2026-04-24 10:42 52.96691 12.59874 35845 ft 442 kts 277°
2026-04-24 10:42 52.96860 12.54776 35530 ft 444 kts 277°
2026-04-24 10:43 52.97023 12.49649 35260 ft 446 kts 276°
2026-04-24 10:43 52.97184 12.44510 34939 ft 447 kts 276°
2026-04-24 10:43 52.97342 12.39363 34373 ft 445 kts 276°
2026-04-24 10:43 52.97498 12.34240 33620 ft 444 kts 276°
2026-04-24 10:44 52.97652 12.29120 32877 ft 445 kts 276°
2026-04-24 10:44 52.97802 12.23998 32182 ft 444 kts 276°
2026-04-24 10:44 52.97950 12.18948 31510 ft 444 kts 276°
2026-04-24 10:44 52.98098 12.13849 30857 ft 443 kts 276°
2026-04-24 10:45 52.98244 12.08750 30229 ft 441 kts 276°
2026-04-24 10:45 52.98385 12.03679 29464 ft 440 kts 276°
2026-04-24 10:45 52.98524 11.98608 28759 ft 438 kts 276°
2026-04-24 10:45 52.98660 11.93587 28094 ft 434 kts 276°
2026-04-24 10:46 52.98790 11.88610 27485 ft 430 kts 276°
2026-04-24 10:46 52.98925 11.83738 26842 ft 427 kts 277°
2026-04-24 10:46 52.99351 11.78905 26196 ft 419 kts 287°
2026-04-24 10:46 53.00109 11.74275 25582 ft 413 kts 289°
2026-04-24 10:47 53.00901 11.69713 24986 ft 408 kts 289°
2026-04-24 10:47 53.01677 11.65206 24392 ft 405 kts 289°
2026-04-24 10:47 53.02438 11.60725 23785 ft 401 kts 289°
2026-04-24 10:47 53.03196 11.56288 23106 ft 397 kts 290°
2026-04-24 10:48 53.04254 11.52115 22473 ft 388 kts 301°
2026-04-24 10:48 53.05542 11.48201 21854 ft 383 kts 302°
2026-04-24 10:48 53.06832 11.44349 21268 ft 379 kts 302°
2026-04-24 10:48 53.08085 11.40592 20712 ft 375 kts 302°
2026-04-24 10:49 53.09332 11.36812 20168 ft 370 kts 302°
2026-04-24 10:49 53.10558 11.33072 19657 ft 366 kts 301°
2026-04-24 10:49 53.11868 11.29497 19168 ft 358 kts 310°
2026-04-24 10:49 53.13621 11.26666 18700 ft 348 kts 325°
2026-04-24 10:50 53.15583 11.24376 18221 ft 342 kts 328°
2026-04-24 10:50 53.17538 11.22173 17733 ft 336 kts 328°
2026-04-24 10:50 53.19458 11.19994 17269 ft 331 kts 328°
2026-04-24 10:50 53.21321 11.17862 16831 ft 329 kts 327°
2026-04-24 10:51 53.23206 11.15692 16386 ft 329 kts 327°
2026-04-24 10:51 53.25087 11.13510 15967 ft 329 kts 327°
2026-04-24 10:51 53.26968 11.11330 15561 ft 328 kts 327°
2026-04-24 10:51 53.28844 11.09161 15155 ft 328 kts 327°
2026-04-24 10:52 53.30720 11.06989 14722 ft 329 kts 327°
2026-04-24 10:52 53.32598 11.04799 14280 ft 330 kts 326°
2026-04-24 10:52 53.34461 11.02617 13833 ft 324 kts 326°
2026-04-24 10:52 53.36290 11.00478 13371 ft 317 kts 326°
2026-04-24 10:53 53.38059 10.98414 12944 ft 311 kts 326°
2026-04-24 10:53 53.39811 10.96365 12515 ft 305 kts 326°
2026-04-24 10:53 53.41533 10.94341 12083 ft 299 kts 326°
2026-04-24 10:53 53.43233 10.92353 11671 ft 298 kts 326°
2026-04-24 10:54 53.44939 10.90363 11278 ft 299 kts 326°
2026-04-24 10:54 53.46644 10.88364 10900 ft 297 kts 326°
2026-04-24 10:54 53.48300 10.86414 10665 ft 285 kts 326°
2026-04-24 10:54 53.49887 10.84543 10493 ft 272 kts 326°
2026-04-24 10:55 53.51416 10.82743 10229 ft 266 kts 326°
2026-04-24 10:55 53.52901 10.81002 9843 ft 262 kts 327°
2026-04-24 10:55 53.54404 10.79240 9411 ft 264 kts 327°
2026-04-24 10:55 53.55912 10.77468 9015 ft 264 kts 326°
2026-04-24 10:56 53.57415 10.75699 8642 ft 263 kts 326°
2026-04-24 10:56 53.58911 10.73934 8279 ft 262 kts 326°
2026-04-24 10:56 53.60401 10.72176 7933 ft 261 kts 326°
2026-04-24 10:56 53.61799 10.70224 7654 ft 263 kts 315°
2026-04-24 10:57 53.62881 10.67781 7487 ft 265 kts 306°
2026-04-24 10:57 53.63855 10.65154 7306 ft 264 kts 304°
2026-04-24 10:57 53.64822 10.62526 7025 ft 263 kts 304°
2026-04-24 10:57 53.65788 10.59915 6679 ft 262 kts 305°
2026-04-24 10:58 53.66754 10.57314 6289 ft 261 kts 305°
2026-04-24 10:58 53.67718 10.54724 5893 ft 260 kts 305°
2026-04-24 10:58 53.68676 10.52147 5466 ft 259 kts 305°
2026-04-24 10:58 53.69630 10.49572 5037 ft 259 kts 305°
2026-04-24 10:59 53.70570 10.47029 4620 ft 258 kts 305°
2026-04-24 10:59 53.71518 10.44472 4220 ft 256 kts 305°
2026-04-24 10:59 53.72458 10.41936 3873 ft 253 kts 305°
2026-04-24 10:59 53.73371 10.39456 3690 ft 244 kts 305°
2026-04-24 11:00 53.74246 10.37083 3533 ft 232 kts 304°
2026-04-24 11:00 53.75069 10.34841 3379 ft 223 kts 304°
2026-04-24 11:00 53.75880 10.32651 3077 ft 218 kts 305°
2026-04-24 11:00 53.76636 10.30400 2967 ft 223 kts 294°
2026-04-24 11:01 53.76828 10.27798 2953 ft 230 kts 263°
2026-04-24 11:01 53.76215 10.25280 2974 ft 235 kts 240°
2026-04-24 11:01 53.75229 10.23124 2988 ft 232 kts 231°
2026-04-24 11:01 53.74175 10.21195 2975 ft 214 kts 230°
2026-04-24 11:02 53.73210 10.19424 2922 ft 195 kts 232°
2026-04-24 11:02 53.72348 10.17723 2727 ft 186 kts 234°
2026-04-24 11:02 53.71532 10.16071 2478 ft 181 kts 234°
2026-04-24 11:02 53.70745 10.14473 2218 ft 172 kts 234°
2026-04-24 11:03 53.70013 10.12986 2032 ft 154 kts 235°
2026-04-24 11:03 53.69369 10.11681 1801 ft 133 kts 237°
2026-04-24 11:03 53.68804 10.10529 1593 ft 128 kts 237°
2026-04-24 11:03 53.68238 10.09377 1410 ft 128 kts 237°
2026-04-24 11:04 53.67668 10.08237 1293 ft 127 kts 237°
2026-04-24 11:04 53.67127 10.07091 1091 ft 123 kts 239°
2026-04-24 11:04 53.66589 10.05962 911 ft 125 kts 237°
2026-04-24 11:04 53.66009 10.04874 761 ft 125 kts 236°
2026-04-24 11:05 53.65461 10.03748 619 ft 123 kts 238°
2026-04-24 11:05 53.64933 10.02633 462 ft 121 kts 234°
2026-04-24 11:05 53.64388 10.01580 337 ft 120 kts 235°
2026-04-24 11:05 53.63854 10.00495 179 ft 120 kts 237°
2026-04-24 11:06 53.63324 9.99406 54 ft 119 kts 235°
2026-04-24 11:06 53.62900 9.98541 50 ft 68 kts 230°
2026-04-24 11:06 53.62653 9.98036 47 ft 50 kts 230°
2026-04-24 11:06 53.62525 9.97793 46 ft 20 kts 206°
2026-04-24 11:07 53.62432 9.97959 52 ft 0 kts 79°
2026-04-24 11:07 53.62433 9.97967 52 ft 1 kts 79°
2026-04-24 11:08 53.62445 9.98067 52 ft 12 kts 79°
2026-04-24 11:08 53.62462 9.98222 52 ft 15 kts 79°
2026-04-24 11:08 53.62483 9.98402 52 ft 17 kts 79°
2026-04-24 11:08 53.62507 9.98606 52 ft 19 kts 79°
2026-04-24 11:09 53.62533 9.98831 52 ft 21 kts 79°
2026-04-24 11:09 53.62561 9.99078 52 ft 22 kts 79°
2026-04-24 11:09 53.62591 9.99345 52 ft 24 kts 79°
2026-04-24 11:09 53.62621 9.99608 52 ft 22 kts 79°
2026-04-24 11:10 53.62649 9.99804 52 ft 16 kts 58°
2026-04-24 11:10 53.62751 9.99912 51 ft 18 kts 29°
2026-04-24 11:10 53.62830 10.00001 52 ft 13 kts 59°
2026-04-24 11:10 53.62782 10.00126 54 ft 16 kts 153°
2026-04-24 11:11 53.62720 10.00178 54 ft 0 kts 154°
2026-04-24 11:11 53.62710 10.00203 54 ft 4 kts 95°
2026-04-24 11:12 53.62724 10.00260 51 ft 7 kts 63°
2026-04-24 11:12 53.62736 10.00298 54 ft 1 kts 62°
2026-04-24 11:12 53.62738 10.00305 54 ft 0 kts 62°